Jamestown, ND

8:30 AM CDT on April 24, 2017 (GMT -0500)
Jamestown Municipal

Weather History for KJMS - June, 2013

Change the Weather History Date:

Tuesday, June 25, 2013

  Actual Average Record
Temperature  
Mean Temperature 77 °F 67 °F  
Max Temperature 88 °F 79 °F 102 °F (1936)
Min Temperature 66 °F 55 °F 34 °F (1907)
Degree Days  
Heating Degree Days 0 2  
Month to date heating degree days 85 89  
Since 1 June heating degree days 85 89  
Since 1 July heating degree days 9709 9005  
Cooling Degree Days 12 4  
Month to date cooling degree days 55 59  
Year to date cooling degree days 66 79  
Since 1 June cooling degree days 55 59  
Growing Degree Days 26 (Base 50)    
Moisture  
Dew Point 70 °F    
Average Humidity 79    
Maximum Humidity 100    
Minimum Humidity 57    
Precipitation  
Precipitation 0.10 in 0.12 in 2.53 in (1969)
Month to date precipitation 1.75 2.65  
Year to date precipitation 7.34 8.20  
Sea Level Pressure  
Sea Level Pressure 29.64 in    
Wind  
Wind Speed 10 mph (SSE)    
Max Wind Speed 18 mph    
Max Gust Speed 25 mph    
Visibility 10 miles    
Events Rain , Thunderstorm    
T = Trace of Precipitation, MM = Missing Value Source: NWS Daily Summary

Daily Weather History Graph

Daily Weather History Graph

Search for Another Location

Airport or City:

Trip Planner

Search our weather history database for the weather conditions in past years. The results will help you decide how hot, cold, wet, or windy it might be!

Date:

Astronomy

Jun. 25, 2013 Rise Set
Actual Time 5:41 AM CDT 9:33 PM CDT
Civil Twilight 5:01 AM CDT 10:13 PM CDT
Nautical Twilight 4:07 AM CDT 11:07 PM CDT
Astronomical Twilight 2:46 AM CDT 12:28 AM CDT
Moon 11:06 PM CDT (6/25) 8:34 AM CDT (6/25)
Length of Visible Light 17h 11m
Length of Day
15h 52m
Waning Gibbous, 92% of the Moon is Illuminated
Jun 25
Waning Gibbous
Jun 29
Last Quarter
Jul 8
New
Jul 15
First Quarter
Jul 22
Full

Hourly Weather History & Observations

Time (CDT) Temp. Heat Index Dew Point Humidity Pressure Visibility Wind Dir Wind Speed Gust Speed Precip Events Conditions
12:56 AM 69.1 °F - 64.0 °F 84% 29.71 in 10.0 mi SE 10.4 mph - N/A   Clear
1:56 AM 68.0 °F - 64.9 °F 90% 29.69 in 10.0 mi ESE 5.8 mph - N/A   Clear
2:56 AM 66.9 °F - 64.9 °F 93% 29.68 in 10.0 mi ESE 6.9 mph - N/A   Clear
3:56 AM 66.9 °F - 64.9 °F 93% 29.68 in 10.0 mi ESE 5.8 mph - N/A   Clear
4:56 AM 66.0 °F - 64.9 °F 96% 29.68 in 9.0 mi SE 8.1 mph - N/A   Clear
5:56 AM 66.9 °F - 64.9 °F 93% 29.68 in 10.0 mi SE 8.1 mph - N/A   Clear
6:56 AM 66.9 °F - 66.0 °F 97% 29.68 in 10.0 mi SE 6.9 mph - N/A   Clear
7:56 AM 70.0 °F - 66.9 °F 90% 29.69 in 10.0 mi SSE 10.4 mph - N/A   Clear
8:04 AM 71.6 °F - 68.0 °F 88% 29.71 in 10.0 mi SE 8.1 mph - N/A   Partly Cloudy
8:20 AM 71.6 °F - 68.0 °F 88% 29.70 in 10.0 mi SSE 9.2 mph - N/A   Mostly Cloudy
8:56 AM 72.0 °F - 69.1 °F 91% 29.67 in 8.0 mi SSE 10.4 mph - N/A   Overcast
9:56 AM 73.0 °F - 70.0 °F 90% 29.66 in 9.0 mi SE 10.4 mph - N/A   Overcast
10:48 AM 78.8 °F - 71.6 °F 78% 29.67 in 10.0 mi SSE 12.7 mph - N/A   Mostly Cloudy
10:56 AM 77.0 °F - 72.0 °F 84% 29.65 in 10.0 mi South 15.0 mph - N/A   Mostly Cloudy
11:51 AM 80.6 °F 85.4 °F 73.4 °F 79% 29.66 in 10.0 mi SE 11.5 mph - N/A   Mostly Cloudy
11:56 AM 82.0 °F 87.4 °F 73.0 °F 74% 29.64 in 10.0 mi SSE 11.5 mph - N/A   Mostly Cloudy
12:08 PM 82.4 °F 88.2 °F 73.4 °F 74% 29.66 in 10.0 mi SSE 15.0 mph 21.9 mph N/A   Scattered Clouds
12:33 PM 82.4 °F 87.2 °F 71.6 °F 70% 29.66 in 10.0 mi SSE 17.3 mph 24.2 mph N/A   Mostly Cloudy
12:56 PM 82.9 °F 88.0 °F 72.0 °F 69% 29.63 in 10.0 mi SE 16.1 mph 24.2 mph N/A   Mostly Cloudy
1:52 PM 84.2 °F 89.6 °F 71.6 °F 66% 29.66 in 10.0 mi SE 16.1 mph 21.9 mph N/A   Mostly Cloudy
1:56 PM 84.9 °F 91.4 °F 73.0 °F 67% 29.63 in 10.0 mi SE 17.3 mph 23.0 mph N/A   Mostly Cloudy
2:56 PM 86.0 °F 93.0 °F 73.0 °F 65% 29.62 in 10.0 mi SE 16.1 mph 20.7 mph N/A   Scattered Clouds
3:56 PM 87.1 °F 93.6 °F 72.0 °F 61% 29.62 in 10.0 mi SE 11.5 mph 20.7 mph N/A   Partly Cloudy
4:56 PM 86.0 °F 91.5 °F 71.1 °F 61% 29.60 in 10.0 mi SSE 12.7 mph 21.9 mph N/A   Partly Cloudy
5:56 PM 86.0 °F 90.7 °F 70.0 °F 59% 29.59 in 10.0 mi South 17.3 mph 23.0 mph N/A   Scattered Clouds
6:56 PM 84.9 °F 89.4 °F 70.0 °F 61% 29.59 in 10.0 mi South 13.8 mph 19.6 mph N/A   Partly Cloudy
7:56 PM 82.9 °F 87.0 °F 70.0 °F 65% 29.59 in 10.0 mi SSW 11.5 mph - N/A   Overcast
8:56 PM 81.0 °F 84.4 °F 70.0 °F 69% 29.58 in 10.0 mi South 8.1 mph - N/A   Mostly Cloudy
9:56 PM 79.0 °F - 70.0 °F 74% 29.59 in 10.0 mi South 5.8 mph - N/A   Clear
10:50 PM 75.2 °F - 71.6 °F 89% 29.60 in 2.5 mi East 4.6 mph - 0.10 in Rain , Thunderstorm Light Rain
10:56 PM 77.0 °F - 71.1 °F 82% 29.58 in 7.0 mi SSE 5.8 mph - 0.10 in Rain , Thunderstorm Light Thunderstorms and Rain
11:32 PM 75.2 °F - 71.6 °F 89% 29.61 in 10.0 mi West 9.2 mph - 0.00 in Thunderstorm Mostly Cloudy
11:56 PM 73.9 °F - 69.1 °F 85% 29.61 in 10.0 mi West 5.8 mph - 0.00 in   Overcast